Weather History for Mayport NS, FL

Change the Weather History Date:

Friday, November 23, 2012

  Actual Average Record
Temperature  
Mean Temperature 58 °F -  
Max Temperature 72 °F 69 °F 80 °F (2004)
Min Temperature 44 °F 54 °F 37 °F (2002)
Degree Days  
Heating Degree Days 7    
Growing Degree Days 8 (Base 50)    
Moisture  
Dew Point 42 °F    
Average Humidity 64    
Maximum Humidity 89    
Minimum Humidity 26    
Precipitation  
Precipitation 0.00 in - - ()
Sea Level Pressure  
Sea Level Pressure 30.13 in    
Wind  
Wind Speed 4 mph (West)    
Max Wind Speed 8 mph    
Max Gust Speed -    
Visibility 10 miles    
Events      
Averages and records for this station are not official NWS values.
T = Trace of Precipitation, MM = Missing Value Source: NWS Daily Summary

Daily Weather History Graph

Daily Weather History Graph

Search for Another Location

Airport:

Trip Planner

Search our weather history database for the weather conditions in past years. The results will help you decide how hot, cold, wet, or windy it might be!

Date:

Astronomy

Nov. 23, 2012 Rise Set
Actual Time 6:58 AM EST 5:25 PM EST
Civil Twilight 6:32 AM EST 5:51 PM EST
Nautical Twilight 6:03 AM EST 6:20 PM EST
Astronomical Twilight 5:34 AM EST 6:49 PM EST
Moon 2:25 PM EST (11/23) 2:32 AM EST (11/23)
Length of Visible Light 11h 18m
Length of Day
10h 27m
Waxing Gibbous, 79% of the Moon is Illuminated
Nov 23
Waxing Gibbous
Nov 28
Full
Dec 6
Last Quarter
Dec 13
New
Dec 20
First Quarter

Hourly Weather History & Observations

Time (EST) Temp. Dew Point Humidity Pressure Visibility Wind Dir Wind Speed Gust Speed Precip Events Conditions
12:52 AM 48.9 °F 45.0 °F 86% 30.18 in 10.0 mi West 3.5 mph - N/A   Clear
1:52 AM 48.0 °F 44.1 °F 86% 30.17 in 10.0 mi WNW 3.5 mph - N/A   Clear
2:52 AM 48.0 °F 43.0 °F 83% 30.17 in 10.0 mi West 3.5 mph - N/A   Clear
3:52 AM 46.9 °F 42.1 °F 83% 30.16 in 10.0 mi WNW 3.5 mph - N/A   Clear
4:52 AM 48.0 °F 43.0 °F 83% 30.16 in 10.0 mi WNW 3.5 mph - N/A   Clear
5:52 AM 48.0 °F 41.0 °F 77% 30.17 in 10.0 mi NW 3.5 mph - N/A   Clear
6:52 AM 44.1 °F 41.0 °F 89% 30.18 in 10.0 mi Calm Calm - N/A   Scattered Clouds
7:52 AM 50.0 °F 44.1 °F 80% 30.20 in 10.0 mi West 5.8 mph - N/A   Partly Cloudy
8:52 AM 51.1 °F 39.0 °F 63% 30.21 in 10.0 mi WNW 4.6 mph - N/A   Partly Cloudy
9:52 AM 59.0 °F 39.0 °F 48% 30.22 in 10.0 mi Variable 3.5 mph - N/A   Partly Cloudy
10:52 AM 63.0 °F 36.0 °F 37% 30.21 in 10.0 mi West 3.5 mph - N/A   Partly Cloudy
11:52 AM 64.9 °F 34.0 °F 32% 30.18 in 10.0 mi West 5.8 mph - N/A   Clear
12:52 PM 69.1 °F 35.1 °F 29% 30.15 in 10.0 mi NW 4.6 mph - N/A   Partly Cloudy
1:52 PM 70.0 °F 34.0 °F 27% 30.12 in 10.0 mi West 5.8 mph - N/A   Partly Cloudy
2:52 PM 72.0 °F 35.1 °F 26% 30.09 in 10.0 mi NNW 3.5 mph - N/A   Partly Cloudy
3:52 PM 68.0 °F 39.9 °F 36% 30.08 in 10.0 mi ESE 5.8 mph - N/A   Partly Cloudy
4:52 PM 63.0 °F 45.0 °F 52% 30.07 in 10.0 mi ESE 4.6 mph - N/A   Scattered Clouds
5:52 PM 57.9 °F 44.1 °F 60% 30.07 in 10.0 mi SSE 3.5 mph - N/A   Scattered Clouds
6:52 PM 57.0 °F 48.0 °F 72% 30.08 in 10.0 mi South 3.5 mph - N/A   Clear
7:52 PM 54.0 °F 46.9 °F 77% 30.07 in 10.0 mi SSW 6.9 mph - N/A   Clear
8:52 PM 52.0 °F 48.0 °F 86% 30.07 in 10.0 mi SSW 6.9 mph - N/A   Clear
9:52 PM 52.0 °F 46.0 °F 80% 30.07 in 10.0 mi SW 5.8 mph - N/A   Clear
10:52 PM 59.0 °F 48.0 °F 67% 30.06 in 10.0 mi WSW 6.9 mph - N/A   Clear
11:52 PM 57.9 °F 48.9 °F 72% 30.05 in 10.0 mi WSW 8.1 mph - N/A   Clear